Surface/Precipitation History
01/21/2017 03:05  to  1/22/2017 03:05
Change End Date:
Date/Time
(MST)
Sf
Temp Chem Water Layer Surface Precipitation
Sfc Pvt Sub Frz Factor Pct Dpth DpthThk IcePct Cond Salin FI Type Intens Accum Rate
01/22/2017 03:00 Ice Warning 25.3F - 28F 31F 95 2% - - 91% 5 mhos 626 - None None - -
01/22/2017 02:52 Ice Warning 25.3F - 28F 31F 95 2% - - 91% 5 mhos 620 - None None - -
01/22/2017 02:45 Ice Warning 25.2F - 28F 31F 95 2% - - 91% 5 mhos 617 - None None - -
01/22/2017 02:42 Ice Warning 25.2F - 28F 31F 95 2% - - 91% 5 mhos 618 - None None - -
01/22/2017 02:32 Ice Warning 25.3F - 28F 31F 95 2% - - 91% 5 mhos 621 - None None - -
01/22/2017 02:30 Ice Warning 25.3F - 28F 31F 95 2% - - 91% 5 mhos 622 - None None - -
01/22/2017 02:22 Ice Warning 25.5F - 28F 31F 95 2% - - 91% 5 mhos 624 - None None - -
01/22/2017 02:15 Ice Warning 25.5F - 28F 31F 95 2% - - 91% 5 mhos 623 - None None - -
01/22/2017 02:12 Ice Warning 25.5F - 28F 31F 95 2% - - 91% 5 mhos 622 - None None - -
01/22/2017 02:02 Ice Warning 25.5F - 28F 31F 95 2% - - 91% 5 mhos 622 - None None - -
01/22/2017 02:00 Ice Warning 25.5F - 28F 31F 95 2% - - 91% 5 mhos 622 - None None - -
01/22/2017 01:51 Ice Warning 25.7F - 28F 31F 95 2% - - 90% 5 mhos 622 - None None - -
01/22/2017 01:45 Ice Warning 25.7F - 28F 31F 95 2% - - 90% 5 mhos 623 - None None - -
01/22/2017 01:41 Ice Warning 25.7F - 28F 31F 95 2% - - 90% 5 mhos 622 - None None - -
01/22/2017 01:31 Ice Warning 25.7F - 28F 31F 95 2% - - 90% 5 mhos 620 - None None - -
Date/Time
(MST)
Sf
Temp Chem Water Layer Surface Precipitation
Sfc Pvt Sub Frz Factor Pct Dpth DpthThk IcePct Cond Salin FI Type Intens Accum Rate
01/22/2017 01:30 Ice Warning 25.7F - 28F 31F 95 2% - - 90% 5 mhos 619 - None None - -
01/22/2017 01:21 Ice Warning 25.7F - 28F 31F 95 2% - - 90% 5 mhos 619 - Yes - - -
01/22/2017 01:15 Ice Warning 25.7F - 28F 31F 95 2% - - 90% 5 mhos 621 - None None - -
01/22/2017 01:11 Ice Warning 25.7F - 28F 31F 95 2% - - 90% 5 mhos 622 - Yes - - -
01/22/2017 01:01 Ice Warning 25.9F - 28F 31F 95 2% - - 90% 5 mhos 634 - None None - -
01/22/2017 01:00 Ice Warning 25.9F - 28F 31F 95 2% - - 90% 5 mhos 637 - None None - -
01/22/2017 00:51 Ice Warning 25.9F - 28F 31F 95 2% - - 90% 5 mhos 642 - None None - -
01/22/2017 00:45 Ice Warning 26.1F - 28F 31F 95 2% - - 89% 6 mhos 645 - None None - -
01/22/2017 00:41 Ice Warning 26.1F - 28F 31F 95 2% - - 89% 6 mhos 647 - None None - -
01/22/2017 00:31 Ice Warning 26.2F - 28F 31F 95 3% - - 89% 6 mhos 655 - Yes - - -
01/22/2017 00:30 Ice Warning 26.2F - 28F 31F 95 3% - - 89% 6 mhos 657 - Yes - - -
01/22/2017 00:21 Ice Warning 26.4F - 28F 31F 95 3% - - 88% 6 mhos 658 - None None - -
01/22/2017 00:15 Ice Warning 26.4F - 28F 31F 95 3% - - 89% 6 mhos 652 - None None - -
01/22/2017 00:11 Ice Warning 26.4F - 28F 31F 95 3% - - 89% 6 mhos 652 - None None - -
01/22/2017 00:01 Ice Warning 26.4F - 28F 31F 95 3% - - 88% 6 mhos 657 - None None - -
Date/Time
(MST)
Sf
Temp Chem Water Layer Surface Precipitation
Sfc Pvt Sub Frz Factor Pct Dpth DpthThk IcePct Cond Salin FI Type Intens Accum Rate
01/22/2017 00:00 Ice Warning 26.4F - 28F 31F 95 3% - - 88% 6 mhos 657 - None None - -
01/21/2017 23:51 Ice Warning 26.4F - 28F 31F 95 3% - - 88% 6 mhos 657 - None None - -
01/21/2017 23:45 Ice Warning 26.4F - 28F 31F 95 3% - - 89% 6 mhos 654 - None None - -
01/21/2017 23:41 Ice Warning 26.4F - 28F 31F 95 3% - - 89% 6 mhos 652 - None None - -
01/21/2017 23:31 Ice Warning 26.4F - 28F 31F 95 2% - - 89% 6 mhos 642 - None None - -
01/21/2017 23:30 Ice Warning 26.4F - 28F 31F 95 2% - - 89% 6 mhos 642 - Yes - - -
01/21/2017 23:21 Ice Warning 26.4F - 28F 31F 95 2% - - 89% 5 mhos 640 - None None - -
01/21/2017 23:15 Ice Warning 26.2F - 28F 31F 95 2% - - 89% 5 mhos 634 - None None - -
01/21/2017 23:11 Ice Warning 26.2F - 28F 31F 95 2% - - 89% 5 mhos 634 - None None - -
01/21/2017 23:01 Ice Warning 26.2F - 28F 31F 95 2% - - 89% 5 mhos 630 - None None - -
01/21/2017 23:00 Ice Warning 26.2F - 28F 31F 95 2% - - 89% 5 mhos 630 - None None - -
01/21/2017 22:50 Ice Warning 26.1F - 28F 31F 95 2% - - 90% 5 mhos 614 - None None - -
01/21/2017 22:45 Ice Warning 26.1F - 28F 31F 95 2% - - 90% 5 mhos 608 - None None - -
01/21/2017 22:40 Ice Warning 26.1F - 28F 31F 95 2% - - 90% 5 mhos 602 - None None - -
01/21/2017 22:30 Ice Warning 26.1F - 28F 31F 95 2% - - 90% 5 mhos 601 - None None - -
Date/Time
(MST)
Sf
Temp Chem Water Layer Surface Precipitation
Sfc Pvt Sub Frz Factor Pct Dpth DpthThk IcePct Cond Salin FI Type Intens Accum Rate
01/21/2017 22:30 Ice Warning 26.1F - 28F 31F 95 2% - - 90% 5 mhos 601 - None None - -
01/21/2017 22:20 Ice Warning 26.1F - 28F 31F 95 2% - - 90% 5 mhos 597 - None None - -
01/21/2017 22:15 Ice Warning 26.1F - 28F 31F 95 2% - - 90% 5 mhos 598 - None None - -
01/21/2017 22:10 Ice Warning 26.1F - 28F 31F 95 2% - - 90% 5 mhos 597 - Yes - - -
01/21/2017 22:00 Ice Warning 26.2F - 28F 31F 95 2% - - 90% 5 mhos 591 - None None - -
01/21/2017 22:00 Ice Warning 26.2F - 28F 31F 95 2% - - 90% 5 mhos 591 - None None - -
01/21/2017 21:50 Ice Warning 26.4F - 28F 31F 95 2% - - 90% 5 mhos 576 - Yes - - -
01/21/2017 21:45 Ice Warning 26.6F - 28F 31F 95 2% - - 89% 5 mhos 582 - None None - -
01/21/2017 21:40 Ice Warning 26.6F - 28F 31F 95 2% - - 89% 5 mhos 589 - None None - -
01/21/2017 21:30 Ice Warning 26.8F - 28F 31F 95 2% - - 89% 5 mhos 593 - None None - -
01/21/2017 21:30 Ice Warning 26.8F - 28F 31F 95 2% - - 89% 5 mhos 593 - None None - -
01/21/2017 21:20 Ice Warning 26.8F - 28F 31F 95 2% - - 89% 5 mhos 577 - None None - -
01/21/2017 21:15 Ice Warning 26.8F - 28F 31F 95 2% - - 89% 5 mhos 571 - None None - -
01/21/2017 21:10 Ice Warning 26.8F - 28F 31F 95 2% - - 90% 5 mhos 561 - None None - -
01/21/2017 21:00 Ice Warning 26.8F - 28F 31F 95 2% - - 89% 5 mhos 549 - None None - -
Date/Time
(MST)
Sf
Temp Chem Water Layer Surface Precipitation
Sfc Pvt Sub Frz Factor Pct Dpth DpthThk IcePct Cond Salin FI Type Intens Accum Rate
01/21/2017 21:00 Ice Warning 26.8F - 28F 31F 95 2% - - 89% 5 mhos 549 - None None - -
01/21/2017 20:50 Ice Warning 26.8F - 28F 31F 95 2% - - 90% 5 mhos 542 - None None - -
01/21/2017 20:45 Ice Warning 26.8F - 28F 31F 95 2% - - 90% 5 mhos 521 - None None - -
01/21/2017 20:40 Ice Warning 26.8F - 28F 31F 95 2% - - 90% 4 mhos 512 - Yes - - -
01/21/2017 20:30 Ice Warning 27.0F - 28F 31F 95 2% - - 91% 4 mhos 469 - Yes - - -
01/21/2017 20:30 Ice Warning 27.0F - 28F 31F 95 2% - - 91% 4 mhos 469 - Yes - - -
01/21/2017 20:20 Ice Warning 27.0F - 27F 32F 95 2% - - 92% 4 mhos 414 - Yes - - -
01/21/2017 20:15 Ice Warning 27.0F - 27F 32F 95 2% - - 92% 3 mhos 402 - Yes - - -
01/21/2017 20:10 Ice Warning 26.8F - 27F 32F 95 1% - - 94% 3 mhos 311 - Yes - - -
01/21/2017 20:00 Ice Warning 26.8F - 27F 32F 95 1% - - 94% 3 mhos 290 - Yes - - -
01/21/2017 20:00 Ice Warning 26.8F - 27F 32F 95 1% - - 94% 3 mhos 290 - Yes - - -
01/21/2017 19:49 Ice Warning 26.8F - 27F 32F 95 1% - - 95% 2 mhos 270 - Yes - - -
01/21/2017 19:45 Ice Warning 26.8F - 27F 32F 95 1% - - 95% 2 mhos 262 - Yes - - -
01/21/2017 19:39 Ice Warning 26.8F - 27F 32F 95 1% - - 95% 2 mhos 257 - Yes - - -
01/21/2017 19:30 Ice Warning 27.5F - 27F 32F 95 1% - - 94% 2 mhos 265 - Yes - - -
Date/Time
(MST)
Sf
Temp Chem Water Layer Surface Precipitation
Sfc Pvt Sub Frz Factor Pct Dpth DpthThk IcePct Cond Salin FI Type Intens Accum Rate
01/21/2017 19:29 Ice Warning 27.5F - 27F 32F 95 1% - - 94% 2 mhos 265 - Yes - - -
01/21/2017 19:19 Ice Warning 27.5F - 27F 32F 95 1% - - 93% 3 mhos 299 - Yes - - -
01/21/2017 19:15 Ice Warning 27.5F - 27F 32F 95 1% - - 93% 3 mhos 306 - Yes - - -
01/21/2017 19:09 Ice Warning 27.5F - 27F 32F 95 1% - - 94% 2 mhos 273 - Yes - - -
01/21/2017 19:00 Ice Warning 27.5F - 27F 32F 95 1% - - 94% 2 mhos 256 - Yes - - -
01/21/2017 18:59 Ice Warning 27.5F - 27F 32F 95 1% - - 94% 2 mhos 256 - Yes - - -
01/21/2017 18:49 Ice Warning 27.5F - 27F 32F 95 1% - - 95% 2 mhos 237 - Yes - - -
01/21/2017 18:45 Ice Warning 27.5F - 27F 32F 95 1% - - 95% 2 mhos 237 - Yes - - -
01/21/2017 18:39 Ice Warning 27.5F - 27F 32F 95 1% - - 95% 2 mhos 215 - Yes - - -
01/21/2017 18:30 Ice Warning 27.7F - 27F 32F 95 1% - - 95% 2 mhos 206 - Yes - - -
01/21/2017 18:29 Ice Warning 27.7F - 27F 32F 95 1% - - 95% 2 mhos 206 - Yes - - -
01/21/2017 18:19 Ice Warning 27.7F - 27F 32F 95 1% - - 95% 2 mhos 202 - Yes - - -
01/21/2017 18:15 Ice Warning 27.9F - 27F 32F 95 1% - - 95% 2 mhos 201 - Yes - - -
01/21/2017 18:09 Ice Warning 28.0F - 27F 32F 95 1% - - 95% 2 mhos 206 - Yes - - -
01/21/2017 18:00 Ice Warning 28.0F - 27F 32F 95 1% - - 95% 2 mhos 210 - Yes - - -
Date/Time
(MST)
Sf
Temp Chem Water Layer Surface Precipitation
Sfc Pvt Sub Frz Factor Pct Dpth DpthThk IcePct Cond Salin FI Type Intens Accum Rate
01/21/2017 17:59 Ice Warning 28.0F - 27F 32F 95 1% - - 95% 2 mhos 208 - Yes - - -
01/21/2017 17:49 Ice Warning 28.2F - 27F 32F 95 1% - - 94% 2 mhos 240 - Yes - - -
01/21/2017 17:45 Ice Warning 28.2F - 27F 32F 95 1% - - 94% 2 mhos 242 - Yes - - -
01/21/2017 17:39 Ice Warning 28.4F - 27F 32F 95 1% - - 92% 2 mhos 270 - Yes - - -
01/21/2017 17:30 Ice Warning 28.4F - 27F 32F 95 1% - - 92% 3 mhos 295 - Yes - - -
01/21/2017 17:29 Ice Warning 28.4F - 27F 32F 95 1% - - 92% 3 mhos 301 - Yes - - -
01/21/2017 17:19 Ice Warning 28.6F - 27F 32F 95 1% - - 89% 3 mhos 383 - Yes - - -
01/21/2017 17:15 Chemically Wet 28.6F - 27F 31F 95 3% - - 75% 7 mhos 843 - Yes - - -
01/21/2017 17:09 Chemically Wet 28.8F - 27F 31F 95 3% - - 77% 7 mhos 743 - Yes - - -
01/21/2017 17:00 Chemically Wet 28.8F - 27F 31F 95 3% - - 73% 8 mhos 866 - Yes - - -
01/21/2017 16:59 Chemically Wet 28.8F - 27F 31F 95 4% - - 72% 8 mhos 918 - Yes - - -
01/21/2017 16:48 Chemically Wet 29.1F - 27F 30F 95 7% - - 35% 17 mhos 1910 - Yes - - -
01/21/2017 16:45 Chemically Wet 29.1F - 27F 30F 95 7% - - 35% 17 mhos 1913 - Yes - - -
01/21/2017 16:38 Chemically Wet 29.1F - 27F 29F 95 9% - - 18% 20 mhos 2278 - Yes - - -
01/21/2017 16:30 Chemically Wet 29.1F - 27F 29F 95 9% - - 19% 19 mhos 2238 - Yes - - -
Date/Time
(MST)
Sf
Temp Chem Water Layer Surface Precipitation
Sfc Pvt Sub Frz Factor Pct Dpth DpthThk IcePct Cond Salin FI Type Intens Accum Rate
01/21/2017 16:28 Chemically Wet 29.3F - 27F 29F 95 10% 0.00 in - 0% 22 mhos 2599 - Yes - - -
01/21/2017 16:18 Chemically Wet 29.7F - 27F 29F 95 10% 0.00 in - 0% 22 mhos 2570 - Yes - - -
01/21/2017 16:15 Chemically Wet 29.8F - 27F 29F 95 12% 0.00 in - 0% 26 mhos 3056 - Yes - - -
01/21/2017 16:08 Chemically Wet 29.8F - 27F 29F 95 12% 0.00 in - 0% 26 mhos 3054 - Yes - - -
01/21/2017 16:00 Chemically Wet 29.8F - 27F 28F 95 13% 0.00 in - 0% 29 mhos 3412 - Yes - - -
01/21/2017 15:58 Chemically Wet 29.8F - 27F 28F 95 13% 0.00 in - 0% 28 mhos 3295 - Yes - - -
01/21/2017 15:48 Chemically Wet 30.2F - 27F 28F 95 14% 0.00 in - 0% 31 mhos 3631 - Yes - - -
01/21/2017 15:45 Chemically Wet 30.0F - 27F 28F 95 14% 0.00 in - 0% 30 mhos 3537 - Yes - - -
01/21/2017 15:38 Chemically Wet 30.2F - 27F 29F 95 12% 0.00 in - 0% 26 mhos 3018 - Yes - - -
01/21/2017 15:30 Chemically Wet 30.7F - 27F 29F 95 10% 0.00 in - 0% 22 mhos 2543 - Yes - - -
01/21/2017 15:28 Chemically Wet 30.9F - 27F 29F 95 9% 0.00 in - 0% 22 mhos 2453 - Yes - - -
01/21/2017 15:18 Chemically Wet 31.5F - 27F 30F 95 8% 0.00 in - 0% 19 mhos 2094 - Yes - - -
01/21/2017 15:15 Chemically Wet 31.8F - 27F 30F 95 7% 0.00 in - 0% 17 mhos 1893 - Yes - - -
01/21/2017 15:08 Wet 32.5F - 27F 30F 95 6% 0.00 in - 0% 14 mhos 1571 - Yes - - -
01/21/2017 15:00 Wet 32.7F - 27F 30F 95 6% 0.00 in - 0% 14 mhos 1477 - Yes - - -
Date/Time
(MST)
Sf
Temp Chem Water Layer Surface Precipitation
Sfc Pvt Sub Frz Factor Pct Dpth DpthThk IcePct Cond Salin FI Type Intens Accum Rate
01/21/2017 14:58 Wet 32.5F - 27F 30F 95 6% 0.00 in - 0% 14 mhos 1471 - Yes - - -
01/21/2017 14:48 Wet 32.9F - 27F 31F 95 5% 0.00 in - 0% 13 mhos 1404 - Yes - - -
01/21/2017 14:45 Wet 32.9F - 27F 31F 95 5% 0.00 in - 0% 13 mhos 1399 - Yes - - -
01/21/2017 14:38 Wet 33.3F - 27F 31F 80 5% 0.00 in - 0% 13 mhos 1384 - Yes - - -
01/21/2017 14:30 Wet 33.3F - 27F 31F 70 5% 0.00 in - 0% 13 mhos 1382 - Yes - - -
01/21/2017 14:28 Wet 33.3F - 27F 31F 65 5% 0.00 in - 0% 13 mhos 1382 - Yes - - -
01/21/2017 14:18 Wet 33.1F - 27F 30F 90 6% 0.00 in - 0% 14 mhos 1457 - None None - -
01/21/2017 14:15 Wet 32.9F - 27F 30F 95 6% 0.00 in - 0% 13 mhos 1438 - None None - -
01/21/2017 14:08 Wet 33.1F - 27F 30F 95 6% 0.00 in - 0% 15 mhos 1597 - None None - -
01/21/2017 14:00 Wet 33.1F - 27F 30F 95 6% 0.00 in - 0% 15 mhos 1671 - None None - -
01/21/2017 13:58 Wet 33.3F - 27F 30F 95 7% 0.00 in - 0% 16 mhos 1698 - None None - -
01/21/2017 13:47 Wet 33.8F - 27F 30F 95 7% 0.00 in - 0% 17 mhos 1785 - None None - -
01/21/2017 13:45 Wet 34.0F - 27F 30F 95 7% 0.00 in - 0% 17 mhos 1768 - None None - -
01/21/2017 13:37 Wet 34.2F - 27F 30F 95 8% 0.00 in - 0% 19 mhos 2024 - None None - -
01/21/2017 13:30 Wet 34.0F - 27F 30F 95 8% 0.00 in - 0% 19 mhos 2032 - Yes - - -
Date/Time
(MST)
Sf
Temp Chem Water Layer Surface Precipitation
Sfc Pvt Sub Frz Factor Pct Dpth DpthThk IcePct Cond Salin FI Type Intens Accum Rate
01/21/2017 13:27 Wet 34.0F - 27F 30F 95 8% 0.00 in - 0% 19 mhos 2049 - Yes - - -
01/21/2017 13:17 Wet 33.6F - 27F 30F 95 8% 0.00 in - 0% 19 mhos 2094 - None None - -
01/21/2017 13:15 Wet 33.6F - 27F 30F 95 8% 0.00 in - 0% 19 mhos 2100 - None None - -
01/21/2017 13:07 Wet 33.3F - 27F 30F 95 8% 0.00 in - 0% 20 mhos 2122 - None None - -
01/21/2017 13:00 Wet 32.7F - 27F 30F 95 8% 0.00 in - 0% 20 mhos 2156 - None None - -
01/21/2017 12:57 Wet 32.5F - 27F 30F 95 8% 0.00 in - 0% 20 mhos 2167 - None None - -
01/21/2017 12:47 Wet 32.5F - 27F 30F 95 8% 0.00 in - 0% 20 mhos 2199 - None None - -
01/21/2017 12:45 Wet 32.5F - 27F 30F 95 8% 0.00 in - 0% 20 mhos 2205 - None None - -
01/21/2017 12:37 Wet 32.5F - 27F 30F 95 9% 0.00 in - 0% 20 mhos 2218 - None None - -
01/21/2017 12:30 Wet 32.5F - 27F 29F 95 9% 0.00 in - 0% 20 mhos 2232 - None None - -
01/21/2017 12:27 Wet 32.4F - 27F 29F 95 9% 0.00 in - 0% 20 mhos 2237 - None None - -
01/21/2017 12:17 Chemically Wet 31.8F - 27F 29F 95 9% 0.00 in - 0% 20 mhos 2252 - None None - -
01/21/2017 12:15 Chemically Wet 31.6F - 27F 29F 95 9% 0.00 in - 0% 20 mhos 2272 - None None - -
01/21/2017 12:07 Chemically Wet 31.5F - 27F 29F 95 9% 0.00 in - 0% 21 mhos 2292 - None None - -
01/21/2017 12:00 Chemically Wet 31.1F - 27F 29F 95 9% 0.00 in - 0% 20 mhos 2286 - None None - -
Date/Time
(MST)
Sf
Temp Chem Water Layer Surface Precipitation
Sfc Pvt Sub Frz Factor Pct Dpth DpthThk IcePct Cond Salin FI Type Intens Accum Rate
01/21/2017 11:57 Chemically Wet 31.1F - 27F 30F 95 8% 0.00 in - 0% 19 mhos 2109 - None None - -
01/21/2017 11:47 Chemically Wet 30.7F - 27F 30F 95 8% 0.00 in - 0% 19 mhos 2095 - None None - -
01/21/2017 11:45 Chemically Wet 30.6F - 27F 30F 95 8% 0.00 in - 0% 19 mhos 2100 - None None - -
01/21/2017 11:37 Chemically Wet 30.4F - 27F 30F 95 8% 0.00 in - 0% 18 mhos 2087 - None None - -
01/21/2017 11:30 Chemically Wet 30.2F - 27F 30F 95 8% 0.00 in - 0% 18 mhos 2097 - None None - -
01/21/2017 11:27 Chemically Wet 30.0F - 27F 30F 95 8% 0.00 in - 0% 18 mhos 2090 - None None - -
01/21/2017 11:17 Chemically Wet 29.1F - 27F 30F 95 8% - - 24% 18 mhos 2097 - None None - -
01/21/2017 11:15 Chemically Wet 29.1F - 27F 30F 95 8% - - 28% 18 mhos 2096 - None None - -
01/21/2017 11:07 Chemically Wet 28.6F - 27F 30F 95 8% - - 39% 18 mhos 2088 - None None - -
01/21/2017 11:00 Chemically Wet 28.0F - 27F 30F 95 8% - - 49% 18 mhos 2084 - None None - -
01/21/2017 10:57 Chemically Wet 27.9F - 27F 30F 95 8% - - 51% 18 mhos 2073 - None None - -
01/21/2017 10:46 Chemically Wet 27.5F - 27F 29F 95 9% - - 48% 20 mhos 2354 - None None - -
01/21/2017 10:45 Chemically Wet 27.5F - 27F 29F 95 9% - - 48% 20 mhos 2346 - None None - -
01/21/2017 10:36 Chemically Wet 26.8F - 27F 29F 95 9% - - 55% 20 mhos 2339 - None None - -
01/21/2017 10:30 Chemically Wet 26.4F - 27F 29F 95 9% - - 59% 19 mhos 2329 - None None - -
Date/Time
(MST)
Sf
Temp Chem Water Layer Surface Precipitation
Sfc Pvt Sub Frz Factor Pct Dpth DpthThk IcePct Cond Salin FI Type Intens Accum Rate
01/21/2017 10:26 Chemically Wet 26.1F - 27F 29F 95 9% - - 61% 19 mhos 2326 - None None - -
01/21/2017 10:16 Chemically Wet 25.9F - 27F 29F 95 9% - - 62% 20 mhos 2366 - None None - -
01/21/2017 10:15 Chemically Wet 25.9F - 27F 29F 95 9% - - 62% 20 mhos 2366 - None None - -
01/21/2017 10:06 Chemically Wet 26.1F - 27F 29F 95 9% - - 61% 19 mhos 2353 - None None - -
01/21/2017 10:00 Chemically Wet 26.1F - 27F 29F 95 9% - - 61% 19 mhos 2339 - None None - -
01/21/2017 09:56 Chemically Wet 26.2F - 27F 29F 95 9% - - 60% 19 mhos 2333 - None None - -
01/21/2017 09:46 Chemically Wet 26.1F - 27F 29F 95 9% - - 62% 19 mhos 2313 - None None - -
01/21/2017 09:45 Chemically Wet 25.9F - 27F 29F 95 9% - - 63% 19 mhos 2311 - None None - -
01/21/2017 09:36 Chemically Wet 25.7F - 27F 29F 95 9% - - 64% 19 mhos 2341 - None None - -
01/21/2017 09:30 Chemically Wet 25.2F - 27F 29F 95 9% - - 67% 19 mhos 2323 - None None - -
01/21/2017 09:26 Chemically Wet 25.0F - 27F 29F 95 9% - - 68% 19 mhos 2309 - None None - -
01/21/2017 09:16 Chemically Wet 24.6F - 27F 29F 95 9% - - 70% 18 mhos 2280 - None None - -
01/21/2017 09:15 Chemically Wet 24.4F - 27F 29F 95 9% - - 71% 18 mhos 2279 - None None - -
01/21/2017 09:06 Chemically Wet 24.1F - 27F 29F 95 9% - - 73% 18 mhos 2252 - None None - -
01/21/2017 09:00 Chemically Wet 23.9F - 27F 29F 95 9% - - 73% 18 mhos 2233 - None None - -
Date/Time
(MST)
Sf
Temp Chem Water Layer Surface Precipitation
Sfc Pvt Sub Frz Factor Pct Dpth DpthThk IcePct Cond Salin FI Type Intens Accum Rate
01/21/2017 08:56 Chemically Wet 23.9F - 27F 30F 95 9% - - 74% 18 mhos 2215 - None None - -
01/21/2017 08:46 Chemically Wet 23.5F - 27F 29F 95 9% - - 75% 18 mhos 2224 - None None - -
01/21/2017 08:45 Chemically Wet 23.5F - 27F 29F 95 9% - - 75% 18 mhos 2224 - None None - -
01/21/2017 08:36 Chemically Wet 23.4F - 27F 30F 95 9% - - 76% 18 mhos 2217 - None None - -
01/21/2017 08:30 Chemically Wet 23.4F - 27F 30F 95 8% - - 76% 18 mhos 2199 - None None - -
01/21/2017 08:26 Chemically Wet 23.4F - 27F 30F 95 8% - - 76% 17 mhos 2187 - None None - -
01/21/2017 08:16 Chemically Wet 23.4F - 27F 30F 95 8% - - 76% 17 mhos 2170 - None None - -
01/21/2017 08:15 Chemically Wet 23.4F - 27F 30F 95 8% - - 76% 17 mhos 2170 - None None - -
01/21/2017 08:06 Chemically Wet 23.4F - 27F 30F 95 8% - - 76% 17 mhos 2154 - None None - -
01/21/2017 08:00 Chemically Wet 23.2F - 27F 30F 95 8% - - 77% 17 mhos 2153 - None None - -
01/21/2017 07:56 Chemically Wet 23.2F - 27F 30F 95 8% - - 77% 17 mhos 2136 - None None - -
01/21/2017 07:45 Chemically Wet 23.0F - 27F 30F 95 8% - - 78% 17 mhos 2125 - None None - -
01/21/2017 07:45 Chemically Wet 23.0F - 27F 30F 95 8% - - 78% 17 mhos 2125 - None None - -
01/21/2017 07:35 Chemically Wet 22.8F - 27F 30F 95 8% - - 77% 17 mhos 2109 - None None - -
01/21/2017 07:30 Chemically Wet 23.0F - 27F 30F 95 8% - - 78% 17 mhos 2098 - None None - -
Date/Time
(MST)
Sf
Temp Chem Water Layer Surface Precipitation
Sfc Pvt Sub Frz Factor Pct Dpth DpthThk IcePct Cond Salin FI Type Intens Accum Rate
01/21/2017 07:25 Chemically Wet 23.0F - 27F 30F 95 8% - - 78% 17 mhos 2087 - None None - -
01/21/2017 07:15 Chemically Wet 23.0F - 27F 30F 95 8% - - 78% 16 mhos 2061 - None None - -
01/21/2017 07:15 Chemically Wet 23.0F - 27F 30F 95 8% - - 78% 16 mhos 2061 - None None - -
01/21/2017 07:05 Chemically Wet 22.8F - 27F 30F 95 8% - - 78% 16 mhos 2035 - None None - -
01/21/2017 07:00 Chemically Wet 22.8F - 27F 30F 95 8% - - 78% 16 mhos 2011 - None None - -
01/21/2017 06:55 Chemically Wet 22.6F - 27F 30F 95 8% - - 78% 16 mhos 2071 - None None - -
01/21/2017 06:45 Chemically Wet 22.5F - 27F 30F 95 8% - - 79% 16 mhos 2050 - None None - -
01/21/2017 06:45 Chemically Wet 22.5F - 27F 30F 95 8% - - 79% 16 mhos 2050 - None None - -
01/21/2017 06:35 Chemically Wet 22.5F - 27F 30F 95 8% - - 79% 16 mhos 2010 - None None - -
01/21/2017 06:30 Chemically Wet 22.3F - 27F 30F 95 8% - - 80% 16 mhos 1996 - None None - -
01/21/2017 06:25 Chemically Wet 22.1F - 27F 30F 95 8% - - 81% 15 mhos 1967 - None None - -
01/21/2017 06:15 Chemically Wet 21.7F - 27F 30F 95 7% - - 82% 15 mhos 1930 - None None - -
01/21/2017 06:15 Chemically Wet 21.7F - 27F 30F 95 7% - - 82% 15 mhos 1930 - None None - -
01/21/2017 06:05 Chemically Wet 22.1F - 27F 30F 95 7% - - 82% 15 mhos 1848 - None None - -
01/21/2017 06:00 Chemically Wet 22.1F - 27F 30F 95 7% - - 82% 14 mhos 1811 - None None - -
Date/Time
(MST)
Sf
Temp Chem Water Layer Surface Precipitation
Sfc Pvt Sub Frz Factor Pct Dpth DpthThk IcePct Cond Salin FI Type Intens Accum Rate
01/21/2017 05:55 Chemically Wet 22.5F - 27F 30F 95 7% - - 82% 14 mhos 1764 - None None - -
01/21/2017 05:45 Chemically Wet 22.5F - 27F 30F 95 6% - - 84% 12 mhos 1560 - None None - -
01/21/2017 05:35 Ice Warning 22.3F - 27F 31F 95 5% - - 86% 11 mhos 1390 - None None - -
01/21/2017 05:30 Ice Warning 22.1F - 27F 31F 95 5% - - 88% 10 mhos 1265 - None None - -
01/21/2017 05:25 Ice Warning 21.7F - 28F 32F 95 1% - - 97% 3 mhos 354 - None None - -
01/21/2017 05:15 Ice Warning 21.4F - 28F 32F 95 1% - - 97% 3 mhos 347 - None None - -
01/21/2017 05:15 Ice Warning 21.4F - 28F 32F 95 1% - - 97% 3 mhos 347 - None None - -
01/21/2017 05:05 Ice Warning 21.2F - 28F 32F 95 1% - - 97% 3 mhos 344 - None None - -
01/21/2017 05:00 Ice Warning 21.4F - 28F 32F 95 1% - - 97% 3 mhos 347 - None None - -
01/21/2017 04:55 Ice Warning 21.4F - 28F 32F 95 1% - - 97% 3 mhos 347 - None None - -
01/21/2017 04:45 Ice Warning 21.4F - 28F 32F 95 1% - - 97% 3 mhos 339 - None None - -
01/21/2017 04:44 Ice Warning 21.4F - 28F 32F 95 1% - - 97% 3 mhos 339 - None None - -
01/21/2017 04:34 Ice Warning 20.8F - 28F 32F 95 1% - - 97% 3 mhos 330 - None None - -
01/21/2017 04:30 Ice Warning 20.5F - 28F 32F 95 1% - - 97% 3 mhos 324 - None None - -
01/21/2017 04:24 Ice Warning 20.3F - 28F 32F 95 1% - - 97% 3 mhos 318 - None None - -
Date/Time
(MST)
Sf
Temp Chem Water Layer Surface Precipitation
Sfc Pvt Sub Frz Factor Pct Dpth DpthThk IcePct Cond Salin FI Type Intens Accum Rate
01/21/2017 04:15 Ice Warning 19.9F - 28F 32F 95 1% - - 97% 2 mhos 316 - None None - -
01/21/2017 04:14 Ice Warning 19.9F - 28F 32F 95 1% - - 97% 2 mhos 316 - None None - -
01/21/2017 04:04 Ice Warning 20.5F - 28F 32F 95 1% - - 97% 3 mhos 324 - None None - -
01/21/2017 04:00 Ice Warning 20.7F - 28F 32F 95 1% - - 97% 3 mhos 327 - None None - -
01/21/2017 03:54 Ice Warning 20.7F - 28F 32F 95 1% - - 97% 3 mhos 327 - None None - -
01/21/2017 03:45 Ice Warning 20.8F - 28F 32F 95 1% - - 97% 3 mhos 334 - None None - -
01/21/2017 03:44 Ice Warning 20.8F - 28F 32F 95 1% - - 97% 3 mhos 334 - None None - -
01/21/2017 03:34 Ice Warning 21.2F - 28F 32F 95 1% - - 97% 3 mhos 336 - None None - -
01/21/2017 03:30 Ice Warning 21.2F - 28F 32F 95 1% - - 97% 3 mhos 332 - None None - -
01/21/2017 03:24 Ice Warning 20.8F - 28F 32F 95 1% - - 97% 3 mhos 330 - None None - -
01/21/2017 03:15 Ice Warning 20.3F - 28F 32F 95 1% - - 97% 3 mhos 325 - None None - -
01/21/2017 03:14 Ice Warning 20.3F - 28F 32F 95 1% - - 97% 3 mhos 321 - None None - -
Change End Date:

Copyright © 1998-2015 Vaisala, Inc.
All Rights Reserved
Send comments about the data to:
SCAN Web ® is a registered trademark of Vaisala, Inc.
SCAN Web Version 6.0